カタログに戻る

STARLINK-5076

運用中通信VLEO
NORAD 55401·PAYLOAD·🇺🇸 United States

打ち上げ Jan 31, 2023 から Vandenberg Space Force Base

Loading…

次のパス (今後24時間)

TLE

最新Source: CelesTrak SupGP

元期: Sep 15, 2026, 01:32 UTC

1 55401C 23014L   26258.06437500  .00054183  00000+0  45407-2 0  2583
2 55401  69.9997 306.9138 0003800 266.4105  87.5354 14.98301799    15

AllMySatでSTARLINK-5076をリアルタイム追跡

Download on the App Store